This is the latest recevied weather packets stored in our database for station/object AC4AG. If no packets are shown the sender has not sent any weather packets the latest 10 day(s).
| Time | Temp. | Humidity | Pressure | Rain* | Wind** | Luminosity | Snow |
|---|---|---|---|---|---|---|---|
| 1777551175 | 8.89° C | 85% | 1015.7 hPa | 0 mm | - | 132 W/m² | - |
| 1777550873 | 8.89° C | 85% | 1015.7 hPa | 0 mm | - | 112 W/m² | - |
| 1777550569 | 8.89° C | 85% | 1015.4 hPa | 0 mm | - | 96 W/m² | - |
| 1777550265 | 8.89° C | 85% | 1015.4 hPa | 0 mm | - | 91 W/m² | - |
| 1777549962 | 8.89° C | 84% | 1015.4 hPa | 0 mm | - | 79 W/m² | - |
| 1777549658 | 8.89° C | 86% | 1015.3 hPa | 0 mm | - | 70 W/m² | - |
| 1777549353 | 8.33° C | 86% | 1015.2 hPa | 0 mm | - | 63 W/m² | - |
| 1777549052 | 8.33° C | 87% | 1015.2 hPa | 0 mm | - | 54 W/m² | - |
| 1777548747 | 8.33° C | 87% | 1015.1 hPa | 0 mm | - | 46 W/m² | - |
| 1777548445 | 8.33° C | 87% | 1014.9 hPa | 0 mm | - | 41 W/m² | - |
| 1777548141 | 7.78° C | 86% | 1014.9 hPa | 0 mm | - | 36 W/m² | - |
| 1777547837 | 7.78° C | 87% | 1015 hPa | 0 mm | - | 30 W/m² | - |
| 1777547534 | 7.78° C | 87% | 1014.5 hPa | 0 mm | - | 23 W/m² | - |
| 1777547232 | 7.78° C | 86% | 1014.7 hPa | 0 mm | - | 15 W/m² | - |
| 1777546928 | 7.78° C | 86% | 1014.8 hPa | 0 mm | - | 14 W/m² | - |
| 1777546625 | 7.78° C | 86% | 1014.6 hPa | 0 mm | - | 10 W/m² | - |
| 1777546321 | 7.78° C | 86% | 1014.8 hPa | 0 mm | - | 6 W/m² | - |
| 1777546019 | 7.78° C | 86% | 1014.7 hPa | 0 mm | - | 4 W/m² | - |
| 1777545714 | 8.33° C | 85% | 1014.7 hPa | 0 mm | - | 2 W/m² | - |
| 1777545412 | 8.33° C | 85% | 1014.7 hPa | 0 mm | - | 1 W/m² | - |
| 1777545109 | 8.33° C | 84% | 1014.4 hPa | 0 mm | - | 0 W/m² | - |
| 1777544806 | 8.89° C | 84% | 1014.5 hPa | 0 mm | - | 0 W/m² | - |
| 1777544502 | 8.89° C | 83% | 1014.6 hPa | 0 mm | - | 0 W/m² | - |
| 1777544198 | 8.89° C | 83% | 1014.4 hPa | 0 mm | - | 0 W/m² | - |
| 1777543896 | 8.89° C | 82% | 1014.3 hPa | 0 mm | - | 0 W/m² | - |
* Rain latest hour (hover to see other rain measurements)
** Current wind speed in m/s (hover to see current wind gust speed)